| time (UTC) | temp C | wind direction | speed KPH | gust KPH | rain 1hr cm | rain 24hr cm | rain mn cm | humidity % | barometer mb |
| 20260831160525 | 20 | 144 | 0.0 | 0.0 | 0.00 | 0.00 | 0.81 | 97 | 1015.7 |
| 20260831160025 | 20 | 144 | 0.0 | 0.0 | 0.00 | 0.00 | 0.81 | 97 | 1015.8 |
| 20260831155524 | 20 | 144 | 0.0 | 0.0 | 0.00 | 0.00 | 0.81 | 97 | 1016.1 |
| 20260831155024 | 20 | 144 | 0.0 | 0.0 | 0.00 | 0.00 | 0.81 | 97 | 1016.1 |
| 20260831154524 | 20 | 144 | 0.0 | 0.0 | 0.00 | 0.00 | 0.81 | 97 | 1016.2 |
| 20260831154023 | 20 | 143 | 0.0 | 0.0 | 0.00 | 0.00 | 0.81 | 97 | 1016.2 |
| 20260831153523 | 20 | 143 | 0.0 | 0.0 | 0.00 | 0.00 | 0.81 | 97 | 1016.2 |
| 20260831153024 | 20 | 143 | 0.0 | 0.0 | 0.00 | 0.00 | 0.81 | 97 | 1016.3 |
| 20260831152523 | 20 | 143 | 0.0 | 0.0 | 0.00 | 0.00 | 0.81 | 97 | 1016.3 |
| 20260831152023 | 20 | 143 | 0.0 | 0.0 | 0.00 | 0.00 | 0.81 | 97 | 1016.3 |
| 20260831151523 | 19 | 143 | 0.0 | 0.0 | 0.00 | 0.00 | 0.81 | 97 | 1016.3 |
| 20260831151022 | 19 | 143 | 0.0 | 0.0 | 0.00 | 0.00 | 0.81 | 97 | 1016.3 |
| 20260831150522 | 19 | 143 | 0.0 | 0.0 | 0.00 | 0.00 | 0.81 | 97 | 1016.3 |
| 20260831150022 | 19 | 143 | 0.0 | 0.0 | 0.00 | 0.00 | 0.81 | 97 | 1016.2 |
| 20260831145521 | 19 | 143 | 0.0 | 0.0 | 0.00 | 0.00 | 0.81 | 97 | 1016.0 |
| 20260831145021 | 19 | 143 | 0.0 | 0.0 | 0.00 | 0.00 | 0.81 | 97 | 1016.0 |
| 20260831144522 | 19 | 143 | 0.0 | 0.0 | 0.00 | 0.00 | 0.81 | 97 | 1016.1 |
| 20260831144022 | 19 | 144 | 0.0 | 0.0 | 0.00 | 0.00 | 0.81 | 97 | 1016.1 |
| 20260831143521 | 19 | 145 | 0.0 | 0.0 | 0.00 | 0.00 | 0.81 | 97 | 1016.1 |
| 20260831143022 | 19 | 154 | 0.0 | 0.0 | 0.00 | 0.00 | 0.81 | 97 | 1016.1 |
| 20260831142520 | 19 | 160 | 0.0 | 0.0 | 0.00 | 0.00 | 0.81 | 97 | 1016.2 |
| 20260831142021 | 19 | 160 | 0.0 | 0.0 | 0.00 | 0.00 | 0.79 | 97 | 1016.2 |
| 20260831141520 | 19 | 162 | 0.0 | 0.0 | 0.00 | 0.00 | 0.71 | 97 | 1016.2 |
| 20260831141020 | 19 | 162 | 0.0 | 0.0 | 0.00 | 0.00 | 0.71 | 97 | 1016.2 |
| 20260831140520 | 19 | 162 | 0.0 | 0.0 | 0.00 | 0.00 | 0.69 | 97 | 1016.2 |
| 20260831140032 | 19 | 168 | 0.0 | 0.0 | 0.00 | 0.00 | 0.66 | 97 | 1016.2 |
| 20260831135520 | 19 | 169 | 0.0 | 0.0 | 0.00 | 0.00 | 0.66 | 97 | 1016.2 |
| 20260831135020 | 19 | 169 | 0.0 | 0.0 | 0.00 | 0.00 | 0.66 | 97 | 1016.2 |
| 20260831134520 | 19 | 169 | 0.0 | 0.0 | 0.00 | 0.00 | 0.66 | 97 | 1016.2 |
| 20260831134020 | 19 | 169 | 0.0 | 0.0 | 0.00 | 0.00 | 0.64 | 97 | 1016.2 |
| 20260831133519 | 19 | 169 | 0.0 | 0.0 | 0.00 | 0.00 | 0.64 | 97 | 1016.3 |
| 20260831133019 | 18 | 169 | 0.0 | 0.0 | 0.00 | 0.00 | 0.61 | 97 | 1016.3 |
| 20260831132524 | 19 | 169 | 0.0 | 0.0 | 0.00 | 0.00 | 0.58 | 97 | 1016.3 |
| 20260831132020 | 19 | 169 | 0.0 | 0.0 | 0.00 | 0.00 | 0.56 | 97 | 1016.4 |
| 20260831131519 | 19 | 169 | 0.0 | 0.0 | 0.00 | 0.00 | 0.53 | 97 | 1016.4 |
| 20260831131019 | 18 | 180 | 0.0 | 0.0 | 0.00 | 0.00 | 0.53 | 97 | 1016.3 |
| 20260831130518 | 19 | 180 | 0.0 | 0.0 | 0.00 | 0.00 | 0.51 | 97 | 1016.3 |
| 20260831130017 | 19 | 180 | 0.0 | 0.0 | 0.00 | 0.00 | 0.46 | 97 | 1016.3 |
| 20260831125517 | 19 | 180 | 0.0 | 0.0 | 0.00 | 0.00 | 0.43 | 97 | 1016.2 |
| 20260831125018 | 18 | 180 | 0.0 | 0.0 | 0.00 | 0.00 | 0.41 | 97 | 1016.1 |
| 20260831124518 | 18 | 180 | 0.0 | 0.0 | 0.00 | 0.00 | 0.41 | 97 | 1016.0 |
| 20260831124018 | 18 | 180 | 0.0 | 0.0 | 0.00 | 0.00 | 0.38 | 97 | 1016.0 |
| 20260831123520 | 18 | 180 | 0.0 | 0.0 | 0.00 | 0.00 | 0.36 | 97 | 1016.1 |
| 20260831123017 | 18 | 182 | 0.0 | 0.0 | 0.00 | 0.00 | 0.36 | 97 | 1016.2 |
| 20260831122518 | 18 | 182 | 0.0 | 0.0 | 0.00 | 0.00 | 0.36 | 97 | 1016.0 |
| 20260831122017 | 18 | 183 | 0.0 | 0.0 | 0.00 | 0.00 | 0.36 | 97 | 1016.1 |
| 20260831121517 | 18 | 183 | 0.0 | 0.0 | 0.00 | 0.00 | 0.33 | 97 | 1016.2 |
| 20260831121017 | 18 | 183 | 0.0 | 0.0 | 0.00 | 0.00 | 0.33 | 97 | 1016.2 |
| 20260831120516 | 18 | 183 | 0.0 | 0.0 | 0.00 | 0.00 | 0.33 | 97 | 1016.1 |
| 20260831120018 | 18 | 183 | 0.0 | 0.0 | 0.00 | 0.00 | 0.33 | 97 | 1016.0 |
| 20260831115515 | 18 | 185 | 0.0 | 0.0 | 0.00 | 0.00 | 0.33 | 97 | 1015.9 |
| 20260831115016 | 18 | 185 | 0.0 | 0.0 | 0.00 | 0.00 | 0.33 | 97 | 1015.9 |
| 20260831114516 | 18 | 185 | 0.0 | 0.0 | 0.00 | 0.00 | 0.33 | 97 | 1016.1 |
| 20260831114015 | 18 | 185 | 0.0 | 0.0 | 0.00 | 0.00 | 0.33 | 97 | 1016.1 |
| 20260831113518 | 18 | 185 | 0.0 | 0.0 | 0.00 | 0.00 | 0.33 | 97 | 1016.1 |
| 20260831113014 | 18 | 185 | 0.0 | 0.0 | 0.00 | 0.00 | 0.30 | 97 | 1016.2 |
| 20260831112514 | 18 | 185 | 0.0 | 0.0 | 0.00 | 0.00 | 0.30 | 97 | 1016.1 |
| 20260831112014 | 18 | 185 | 0.0 | 0.0 | 0.00 | 0.00 | 0.30 | 97 | 1016.2 |
| 20260831111514 | 18 | 185 | 0.0 | 0.0 | 0.00 | 0.00 | 0.30 | 97 | 1016.2 |
| 20260831111014 | 18 | 185 | 0.0 | 0.0 | 0.00 | 0.00 | 0.30 | 97 | 1016.2 |
| 20260831110517 | 18 | 185 | 0.0 | 0.0 | 0.00 | 0.00 | 0.30 | 97 | 1016.3 |
| 20260831110014 | 18 | 186 | 0.0 | 0.0 | 0.00 | 0.00 | 0.30 | 97 | 1016.3 |
| 20260831105517 | 18 | 185 | 0.0 | 0.0 | 0.00 | 0.00 | 0.30 | 97 | 1016.3 |
| 20260831105014 | 18 | 185 | 0.0 | 0.0 | 0.00 | 0.00 | 0.30 | 97 | 1016.3 |
| 20260831104517 | 18 | 185 | 0.0 | 0.0 | 0.00 | 0.00 | 0.30 | 97 | 1016.4 |
| 20260831104013 | 18 | 185 | 0.0 | 0.0 | 0.00 | 0.00 | 0.28 | 97 | 1016.3 |
| 20260831103513 | 18 | 185 | 0.0 | 0.0 | 0.00 | 0.00 | 0.28 | 97 | 1016.4 |
| 20260831103013 | 18 | 185 | 0.0 | 0.0 | 0.00 | 0.00 | 0.28 | 97 | 1016.4 |
| 20260831102513 | 18 | 185 | 0.0 | 0.0 | 0.00 | 0.00 | 0.28 | 97 | 1016.3 |
| 20260831102013 | 18 | 185 | 0.0 | 0.0 | 0.00 | 0.00 | 0.28 | 97 | 1016.4 |
| 20260831101514 | 18 | 185 | 0.0 | 0.0 | 0.00 | 0.00 | 0.25 | 97 | 1016.4 |
| 20260831101013 | 18 | 185 | 0.0 | 0.0 | 0.00 | 0.00 | 0.25 | 96 | 1016.5 |
| 20260831100512 | 18 | 185 | 0.0 | 0.0 | 0.00 | 0.00 | 0.25 | 96 | 1016.5 |
| 20260831100012 | 18 | 185 | 0.0 | 0.0 | 0.00 | 0.00 | 0.25 | 96 | 1016.4 |
| 20260831095511 | 18 | 185 | 0.0 | 0.0 | 0.00 | 0.00 | 0.25 | 96 | 1016.4 |
| 20260831095011 | 18 | 185 | 0.0 | 0.0 | 0.00 | 0.00 | 0.25 | 96 | 1016.4 |
| 20260831094512 | 18 | 185 | 0.0 | 0.0 | 0.00 | 0.00 | 0.25 | 96 | 1016.4 |
| 20260831094012 | 18 | 186 | 0.0 | 0.0 | 0.00 | 0.00 | 0.25 | 96 | 1016.3 |
| 20260831093512 | 18 | 186 | 0.0 | 0.0 | 0.00 | 0.00 | 0.25 | 96 | 1016.2 |
| 20260831093011 | 18 | 185 | 0.0 | 0.0 | 0.00 | 0.00 | 0.25 | 96 | 1016.2 |
| 20260831092511 | 18 | 185 | 0.0 | 0.0 | 0.00 | 0.00 | 0.25 | 96 | 1016.2 |
| 20260831092010 | 19 | 185 | 0.0 | 0.0 | 0.00 | 0.00 | 0.25 | 97 | 1016.1 |
| 20260831091510 | 19 | 185 | 0.0 | 0.0 | 0.00 | 0.00 | 0.25 | 97 | 1016.2 |
| 20260831091010 | 19 | 185 | 0.0 | 0.0 | 0.00 | 0.00 | 0.25 | 97 | 1016.3 |
| 20260831090508 | 19 | 185 | 0.0 | 0.0 | 0.00 | 0.00 | 0.25 | 97 | 1016.4 |
| 20260831090008 | 19 | 185 | 0.0 | 0.0 | 0.00 | 0.00 | 0.25 | 97 | 1016.5 |
| 20260831085507 | 19 | 185 | 0.0 | 0.0 | 0.00 | 0.00 | 0.25 | 96 | 1016.5 |
| 20260831085007 | 19 | 186 | 0.0 | 0.0 | 0.00 | 0.00 | 0.25 | 96 | 1016.4 |
| 20260831084507 | 19 | 186 | 0.0 | 0.0 | 0.00 | 0.00 | 0.25 | 96 | 1016.5 |
| 20260831084006 | 19 | 186 | 0.0 | 0.0 | 0.00 | 0.00 | 0.25 | 96 | 1016.5 |
| 20260831083506 | 19 | 186 | 0.0 | 0.0 | 0.00 | 0.00 | 0.25 | 96 | 1016.5 |
| 20260831083007 | 19 | 185 | 0.0 | 0.0 | 0.00 | 0.00 | 0.25 | 96 | 1016.6 |
| 20260831082505 | 19 | 186 | 0.0 | 0.0 | 0.00 | 0.00 | 0.25 | 96 | 1016.7 |
| 20260831082006 | 19 | 186 | 0.0 | 0.0 | 0.00 | 0.00 | 0.25 | 96 | 1016.8 |
| 20260831081505 | 19 | 186 | 0.0 | 0.0 | 0.00 | 0.00 | 0.25 | 96 | 1016.8 |
| 20260831081005 | 19 | 186 | 0.0 | 0.0 | 0.00 | 0.00 | 0.25 | 96 | 1016.8 |
| 20260831080504 | 19 | 186 | 0.0 | 0.0 | 0.00 | 0.00 | 0.25 | 96 | 1016.8 |
| 20260831080004 | 19 | 186 | 0.0 | 0.0 | 0.00 | 0.00 | 0.25 | 96 | 1016.9 |
| 20260831075503 | 19 | 186 | 0.0 | 0.0 | 0.00 | 0.00 | 0.25 | 96 | 1016.9 |
| 20260831075004 | 19 | 186 | 0.0 | 0.0 | 0.00 | 0.00 | 0.25 | 96 | 1016.8 |
| 20260831074503 | 19 | 186 | 0.0 | 0.0 | 0.00 | 0.00 | 0.25 | 96 | 1016.9 |
| 20260831074003 | 19 | 186 | 0.0 | 0.0 | 0.00 | 0.00 | 0.25 | 96 | 1016.9 |
| 20260831073502 | 19 | 186 | 0.0 | 0.0 | 0.00 | 0.00 | 0.23 | 96 | 1017.0 |
| 20260831073001 | 19 | 186 | 0.0 | 0.0 | 0.00 | 0.00 | 0.18 | 96 | 1017.0 |
| 20260831072502 | 19 | 186 | 0.0 | 0.0 | 0.00 | 0.00 | 0.18 | 96 | 1017.1 |
| 20260831072004 | 19 | 186 | 0.0 | 0.0 | 0.00 | 0.00 | 0.18 | 96 | 1017.0 |
| 20260831071504 | 19 | 186 | 0.0 | 0.0 | 0.00 | 0.00 | 0.15 | 96 | 1017.1 |
| 20260831071001 | 19 | 186 | 0.0 | 0.0 | 0.00 | 0.00 | 0.15 | 96 | 1017.0 |
| 20260831070501 | 19 | 186 | 0.0 | 0.0 | 0.00 | 0.00 | 0.15 | 96 | 1017.0 |
| 20260831070109 | 19 | 186 | 0.0 | 0.0 | 0.00 | 0.00 | 0.15 | 96 | 1017.2 |
| 20260831065601 | 19 | 186 | 0.0 | 0.0 | 0.00 | 0.00 | 0.15 | 96 | 1017.2 |
| 20260831065100 | 19 | 186 | 0.0 | 0.0 | 0.00 | 0.00 | 0.15 | 96 | 1017.1 |
| 20260831064600 | 19 | 186 | 0.0 | 0.0 | 0.00 | 0.00 | 0.15 | 96 | 1016.9 |
| 20260831064058 | 19 | 186 | 0.0 | 0.0 | 0.00 | 0.00 | 0.15 | 96 | 1017.0 |
| 20260831063558 | 19 | 186 | 0.0 | 0.0 | 0.00 | 0.00 | 0.13 | 96 | 1017.2 |
| 20260831063058 | 19 | 186 | 0.0 | 0.0 | 0.00 | 0.00 | 0.13 | 96 | 1017.2 |
| 20260831062558 | 19 | 186 | 0.0 | 0.0 | 0.00 | 0.00 | 0.13 | 96 | 1017.2 |
| 20260831062058 | 19 | 186 | 0.0 | 0.0 | 0.00 | 0.00 | 0.10 | 96 | 1017.2 |
| 20260831061606 | 19 | 186 | 0.0 | 0.0 | 0.00 | 0.00 | 0.10 | 96 | 1017.2 |
| 20260831061056 | 19 | 186 | 0.0 | 0.0 | 0.00 | 0.00 | 0.10 | 96 | 1017.3 |
| 20260831060557 | 19 | 186 | 0.0 | 0.0 | 0.00 | 0.00 | 0.10 | 96 | 1017.4 |
| 20260831060108 | 19 | 186 | 0.0 | 0.0 | 0.00 | 0.00 | 0.08 | 96 | 1017.4 |
| 20260831055555 | 19 | 186 | 0.0 | 0.0 | 0.00 | 0.00 | 0.05 | 96 | 1017.3 |
| 20260831055055 | 19 | 186 | 0.0 | 0.0 | 0.00 | 0.00 | 0.05 | 96 | 1017.4 |
| 20260831054556 | 19 | 186 | 0.0 | 0.0 | 0.00 | 0.00 | 0.05 | 96 | 1017.4 |
| 20260831054056 | 19 | 186 | 0.0 | 0.0 | 0.00 | 0.00 | 0.05 | 96 | 1017.3 |
| 20260831053556 | 19 | 186 | 0.0 | 0.0 | 0.00 | 0.00 | 0.05 | 96 | 1017.3 |
| 20260831053121 | 19 | 186 | 0.0 | 0.0 | 0.00 | 0.00 | 0.05 | 96 | 1017.3 |
| 20260831052556 | 19 | 186 | 0.0 | 0.0 | 0.00 | 0.00 | 0.05 | 96 | 1017.3 |
| 20260831052058 | 19 | 186 | 0.0 | 0.0 | 0.00 | 0.00 | 0.05 | 95 | 1017.3 |
| 20260831051603 | 19 | 186 | 0.0 | 0.0 | 0.00 | 0.00 | 0.05 | 95 | 1017.4 |
| 20260831051054 | 19 | 186 | 0.0 | 0.0 | 0.00 | 0.00 | 0.05 | 95 | 1017.4 |
| 20260831050553 | 19 | 186 | 0.0 | 0.0 | 0.00 | 0.00 | 0.05 | 95 | 1017.4 |
| 20260831050053 | 19 | 186 | 0.0 | 0.0 | 0.00 | 0.00 | 0.05 | 95 | 1017.4 |
| 20260831045553 | 19 | 186 | 0.0 | 0.0 | 0.00 | 0.00 | 0.05 | 95 | 1017.3 |
| 20260831045055 | 19 | 186 | 0.0 | 0.0 | 0.00 | 0.00 | 0.05 | 95 | 1017.4 |
| 20260831044552 | 19 | 186 | 0.0 | 0.0 | 0.00 | 0.00 | 0.05 | 95 | 1017.4 |
| 20260831044056 | 19 | 186 | 0.0 | 0.0 | 0.00 | 0.00 | 0.05 | 95 | 1017.4 |
| 20260831043552 | 19 | 186 | 0.0 | 0.0 | 0.00 | 0.00 | 0.05 | 95 | 1017.5 |
| 20260831043052 | 19 | 186 | 0.0 | 0.0 | 0.00 | 0.00 | 0.03 | 95 | 1017.4 |
| 20260831042552 | 19 | 186 | 0.0 | 0.0 | 0.00 | 0.00 | 0.00 | 95 | 1017.4 |
| 20260831042052 | 19 | 186 | 0.0 | 0.0 | 0.00 | 0.00 | 0.00 | 95 | 1017.4 |
| 20260831041553 | 19 | 186 | 0.0 | 0.0 | 0.00 | 0.00 | 0.00 | 95 | 1017.4 |
| 20260831041050 | 19 | 186 | 0.0 | 0.0 | 0.00 | 0.00 | 0.00 | 95 | 1017.4 |
| 20260831040550 | 19 | 186 | 0.0 | 0.0 | 0.00 | 0.00 | 0.00 | 95 | 1017.5 |
| 20260831040048 | 19 | 186 | 0.0 | 0.0 | 0.00 | 0.00 | 0.00 | 95 | 1017.5 |
| 20260831035548 | 19 | 186 | 0.0 | 0.0 | 0.00 | 0.00 | 0.25 | 95 | 1017.6 |
| 20260831035048 | 19 | 186 | 0.0 | 0.0 | 0.00 | 0.00 | 0.25 | 95 | 1017.5 |
| 20260831034551 | 19 | 186 | 0.0 | 0.0 | 0.00 | 0.00 | 0.25 | 95 | 1017.4 |
| 20260831034051 | 19 | 186 | 0.0 | 0.0 | 0.00 | 0.00 | 0.25 | 95 | 1017.5 |
| 20260831033548 | 19 | 186 | 0.0 | 0.0 | 0.00 | 0.00 | 0.25 | 95 | 1017.5 |
| 20260831033104 | 19 | 186 | 0.0 | 0.0 | 0.00 | 0.00 | 0.25 | 94 | 1017.5 |
| 20260831032550 | 19 | 186 | 0.0 | 0.0 | 0.00 | 0.00 | 0.25 | 94 | 1017.5 |
| 20260831032048 | 19 | 186 | 0.0 | 0.0 | 0.00 | 0.00 | 0.23 | 94 | 1017.6 |
| 20260831031547 | 19 | 186 | 0.0 | 0.0 | 0.00 | 0.00 | 0.23 | 94 | 1017.5 |
| 20260831031047 | 19 | 186 | 0.0 | 0.0 | 0.00 | 0.00 | 0.23 | 94 | 1017.6 |
| 20260831030547 | 19 | 186 | 0.0 | 0.0 | 0.00 | 0.00 | 0.23 | 94 | 1017.5 |
| 20260831030047 | 19 | 186 | 0.0 | 0.0 | 0.00 | 0.00 | 0.23 | 94 | 1017.6 |
| 20260831025546 | 19 | 186 | 0.0 | 0.0 | 0.00 | 0.00 | 0.23 | 94 | 1017.6 |
| 20260831025047 | 19 | 186 | 0.0 | 0.0 | 0.00 | 0.00 | 0.23 | 94 | 1017.7 |
| 20260831024546 | 19 | 186 | 0.0 | 0.0 | 0.00 | 0.00 | 0.23 | 94 | 1017.8 |
| 20260831024046 | 19 | 186 | 0.0 | 0.0 | 0.00 | 0.00 | 0.23 | 94 | 1017.8 |
| 20260831023547 | 18 | 186 | 0.0 | 0.0 | 0.00 | 0.00 | 0.23 | 94 | 1017.7 |
| 20260831023046 | 18 | 186 | 0.0 | 0.0 | 0.00 | 0.00 | 0.23 | 94 | 1017.6 |
| 20260831022546 | 18 | 186 | 0.0 | 0.0 | 0.00 | 0.00 | 0.23 | 94 | 1017.6 |
| 20260831022046 | 18 | 186 | 0.0 | 0.0 | 0.00 | 0.00 | 0.23 | 94 | 1017.6 |
| 20260831021546 | 18 | 188 | 0.0 | 0.0 | 0.00 | 0.00 | 0.23 | 93 | 1017.5 |
| 20260831021046 | 18 | 190 | 0.0 | 0.0 | 0.00 | 0.00 | 0.23 | 93 | 1017.7 |
| 20260831020545 | 18 | 199 | 0.0 | 0.0 | 0.00 | 0.00 | 0.23 | 93 | 1017.8 |
| 20260831015544 | 18 | 199 | 0.0 | 0.0 | 0.00 | 0.00 | 0.23 | 93 | 1017.7 |
| 20260831015044 | 18 | 199 | 0.0 | 0.0 | 0.00 | 0.00 | 0.23 | 93 | 1017.8 |
| 20260831014544 | 18 | 199 | 0.0 | 0.0 | 0.00 | 0.00 | 0.23 | 93 | 1017.8 |
| 20260831014044 | 18 | 200 | 0.0 | 0.0 | 0.00 | 0.00 | 0.23 | 93 | 1017.8 |
| 20260831013544 | 18 | 200 | 0.0 | 0.0 | 0.00 | 0.00 | 0.23 | 93 | 1017.8 |
| 20260831013044 | 18 | 200 | 0.0 | 0.0 | 0.00 | 0.00 | 0.23 | 93 | 1017.8 |
| 20260831012544 | 18 | 200 | 0.0 | 0.0 | 0.00 | 0.00 | 0.23 | 93 | 1017.9 |
| 20260831012043 | 18 | 200 | 0.0 | 0.0 | 0.00 | 0.00 | 0.23 | 93 | 1017.8 |
| 20260831011546 | 18 | 200 | 0.0 | 0.0 | 0.00 | 0.00 | 0.23 | 92 | 1017.7 |
| 20260831011043 | 18 | 200 | 0.0 | 0.0 | 0.00 | 0.00 | 0.23 | 92 | 1017.7 |
| 20260831010542 | 18 | 200 | 0.0 | 0.0 | 0.00 | 0.00 | 0.23 | 92 | 1017.7 |
| 20260831010044 | 18 | 200 | 0.0 | 0.0 | 0.00 | 0.00 | 0.23 | 92 | 1017.7 |
| 20260831005542 | 18 | 200 | 0.0 | 0.0 | 0.00 | 0.00 | 0.23 | 92 | 1017.6 |
| 20260831005042 | 18 | 200 | 0.0 | 0.0 | 0.00 | 0.00 | 0.23 | 92 | 1017.6 |
| 20260831004542 | 18 | 200 | 0.0 | 0.0 | 0.00 | 0.00 | 0.23 | 92 | 1017.4 |
| 20260831004042 | 18 | 200 | 0.0 | 0.0 | 0.00 | 0.00 | 0.23 | 92 | 1017.4 |
| 20260831003542 | 18 | 200 | 0.0 | 0.0 | 0.00 | 0.00 | 0.23 | 92 | 1017.3 |
| 20260831003041 | 18 | 200 | 0.0 | 0.0 | 0.00 | 0.00 | 0.23 | 92 | 1017.2 |
| 20260831002541 | 18 | 200 | 0.0 | 0.0 | 0.00 | 0.00 | 0.23 | 92 | 1017.1 |
| 20260831002041 | 18 | 200 | 0.0 | 0.0 | 0.00 | 0.00 | 0.23 | 92 | 1017.1 |
| 20260831001541 | 18 | 206 | 0.0 | 0.0 | 0.00 | 0.00 | 0.23 | 91 | 1017.0 |
| 20260831001043 | 18 | 207 | 0.0 | 0.0 | 0.00 | 0.00 | 0.23 | 91 | 1017.1 |
| 20260831000540 | 18 | 207 | 0.0 | 0.0 | 0.00 | 0.00 | 0.23 | 91 | 1017.1 |
| 20260831000044 | 18 | 207 | 0.0 | 0.0 | 0.00 | 0.00 | 0.23 | 91 | 1017.1 |
| 20260830235540 | 18 | 207 | 0.0 | 0.0 | 0.00 | 0.00 | 0.23 | 91 | 1017.1 |
| 20260830235039 | 18 | 207 | 0.0 | 0.0 | 0.00 | 0.00 | 0.23 | 91 | 1017.1 |
| 20260830234540 | 18 | 207 | 0.0 | 0.0 | 0.00 | 0.00 | 0.23 | 91 | 1017.1 |
| 20260830234039 | 18 | 207 | 0.0 | 0.0 | 0.00 | 0.00 | 0.23 | 91 | 1017.0 |
| 20260830233542 | 18 | 207 | 0.0 | 0.0 | 0.00 | 0.00 | 0.20 | 90 | 1016.9 |
| 20260830233045 | 18 | 207 | 0.0 | 0.0 | 0.00 | 0.00 | 0.20 | 90 | 1017.0 |
| 20260830232539 | 18 | 207 | 0.0 | 0.0 | 0.00 | 0.00 | 0.20 | 90 | 1016.9 |
| 20260830232038 | 18 | 207 | 0.0 | 0.0 | 0.00 | 0.00 | 0.20 | 90 | 1017.0 |
| 20260830231538 | 18 | 207 | 0.0 | 0.0 | 0.00 | 0.00 | 0.20 | 89 | 1017.0 |
| 20260830231037 | 18 | 207 | 0.0 | 0.0 | 0.00 | 0.00 | 0.20 | 89 | 1016.9 |
| 20260830230537 | 18 | 207 | 0.0 | 0.0 | 0.00 | 0.00 | 0.20 | 89 | 1017.0 |
| 20260830230037 | 18 | 207 | 0.0 | 0.0 | 0.00 | 0.00 | 0.20 | 89 | 1017.1 |
| 20260830225537 | 18 | 207 | 0.0 | 0.0 | 0.00 | 0.00 | 0.20 | 89 | 1017.1 |
| 20260830225037 | 19 | 207 | 0.0 | 0.0 | 0.00 | 0.00 | 0.20 | 88 | 1017.2 |
| 20260830224537 | 19 | 207 | 0.0 | 0.0 | 0.00 | 0.00 | 0.20 | 88 | 1017.1 |
| 20260830224037 | 19 | 207 | 0.0 | 0.0 | 0.00 | 0.00 | 0.18 | 88 | 1017.1 |
| 20260830223537 | 19 | 207 | 0.0 | 0.0 | 0.00 | 0.00 | 0.18 | 88 | 1017.0 |
| 20260830223037 | 19 | 207 | 0.0 | 0.0 | 0.00 | 0.00 | 0.18 | 88 | 1017.0 |
| 20260830222539 | 19 | 207 | 0.0 | 0.0 | 0.00 | 0.00 | 0.18 | 88 | 1017.2 |
| 20260830222036 | 19 | 207 | 0.0 | 0.0 | 0.00 | 0.00 | 0.18 | 87 | 1017.0 |
| 20260830221540 | 19 | 207 | 0.0 | 0.0 | 0.00 | 0.00 | 0.18 | 87 | 1016.9 |
| 20260830221036 | 19 | 207 | 0.0 | 0.0 | 0.00 | 0.00 | 0.18 | 87 | 1017.2 |
| 20260830220536 | 19 | 207 | 0.0 | 0.0 | 0.00 | 0.00 | 0.18 | 86 | 1017.1 |
| 20260830220036 | 19 | 207 | 0.0 | 0.0 | 0.00 | 0.00 | 0.18 | 86 | 1017.1 |
| 20260830215536 | 19 | 207 | 0.0 | 0.0 | 0.00 | 0.00 | 0.15 | 86 | 1017.1 |
| 20260830215035 | 19 | 207 | 0.0 | 0.0 | 0.00 | 0.00 | 0.15 | 86 | 1017.1 |
| 20260830214535 | 19 | 207 | 0.0 | 0.0 | 0.00 | 0.00 | 0.15 | 85 | 1017.1 |
| 20260830214035 | 19 | 207 | 0.0 | 0.0 | 0.00 | 0.00 | 0.15 | 86 | 1017.0 |
| 20260830213536 | 19 | 207 | 0.0 | 0.0 | 0.00 | 0.00 | 0.15 | 85 | 1017.0 |
| 20260830213038 | 19 | 207 | 0.0 | 0.0 | 0.00 | 0.00 | 0.15 | 85 | 1017.0 |
| 20260830212534 | 19 | 207 | 0.0 | 0.0 | 0.00 | 0.00 | 0.15 | 86 | 1016.9 |
| 20260830212034 | 19 | 207 | 0.0 | 0.0 | 0.00 | 0.00 | 0.15 | 86 | 1017.0 |
| 20260830211534 | 19 | 207 | 0.0 | 0.0 | 0.00 | 0.00 | 0.15 | 86 | 1017.0 |
| 20260830211034 | 19 | 207 | 0.0 | 0.0 | 0.00 | 0.00 | 0.15 | 86 | 1016.9 |
| 20260830210533 | 19 | 254 | 0.0 | 0.0 | 0.00 | 0.00 | 0.15 | 86 | 1016.9 |
| 20260830210035 | 19 | 292 | 0.0 | 0.0 | 0.00 | 0.00 | 0.15 | 87 | 1016.9 |
| 20260830205533 | 19 | 292 | 0.0 | 0.0 | 0.00 | 0.00 | 0.15 | 87 | 1016.9 |
| 20260830205033 | 19 | 292 | 0.0 | 0.0 | 0.00 | 0.00 | 0.15 | 87 | 1017.0 |
| 20260830204533 | 19 | 292 | 0.0 | 0.0 | 0.00 | 0.00 | 0.15 | 87 | 1017.1 |
| 20260830204035 | 19 | 292 | 0.0 | 0.0 | 0.00 | 0.00 | 0.15 | 87 | 1017.1 |
| 20260830203533 | 19 | 292 | 0.0 | 0.0 | 0.00 | 0.00 | 0.15 | 87 | 1017.2 |
| 20260830203033 | 19 | 292 | 0.0 | 0.0 | 0.00 | 0.00 | 0.15 | 87 | 1017.2 |
| 20260830202533 | 19 | 292 | 0.0 | 0.0 | 0.00 | 0.00 | 0.15 | 87 | 1017.2 |
| 20260830202033 | 19 | 292 | 0.0 | 0.0 | 0.00 | 0.00 | 0.15 | 88 | 1017.3 |
| 20260830201532 | 19 | 317 | 0.0 | 0.0 | 0.00 | 0.00 | 0.15 | 88 | 1017.3 |
| 20260830201034 | 19 | 317 | 0.0 | 0.0 | 0.00 | 0.00 | 0.15 | 88 | 1017.3 |
| 20260830200532 | 19 | 327 | 0.0 | 0.0 | 0.00 | 0.00 | 0.15 | 88 | 1017.3 |
| 20260830200032 | 19 | 327 | 0.0 | 0.0 | 0.00 | 0.00 | 0.15 | 88 | 1017.4 |
| 20260830195532 | 19 | 323 | 0.0 | 0.0 | 0.00 | 0.00 | 0.15 | 88 | 1017.4 |
| 20260830195032 | 19 | 279 | 0.0 | 0.0 | 0.00 | 0.00 | 0.15 | 88 | 1017.4 |
| 20260830194532 | 19 | 263 | 0.0 | 0.0 | 0.00 | 0.00 | 0.15 | 89 | 1017.4 |
| 20260830194032 | 19 | 281 | 0.0 | 0.0 | 0.00 | 0.00 | 0.15 | 89 | 1017.4 |
| 20260830193533 | 19 | 281 | 0.0 | 0.0 | 0.00 | 0.00 | 0.15 | 89 | 1017.4 |
| 20260830193031 | 19 | 281 | 0.0 | 0.0 | 0.00 | 0.00 | 0.15 | 89 | 1017.5 |
| 20260830192531 | 19 | 266 | 0.0 | 0.0 | 0.00 | 0.00 | 0.15 | 89 | 1017.6 |
| 20260830192034 | 19 | 250 | 0.0 | 0.0 | 0.00 | 0.00 | 0.15 | 88 | 1017.5 |
| 20260830191538 | 19 | 268 | 0.0 | 0.0 | 0.00 | 0.00 | 0.15 | 88 | 1017.5 |
| 20260830191031 | 19 | 309 | 0.0 | 0.0 | 0.00 | 0.00 | 0.15 | 88 | 1017.5 |
| 20260830190530 | 19 | 261 | 0.0 | 0.0 | 0.00 | 0.00 | 0.15 | 88 | 1017.6 |
| 20260830190030 | 19 | 227 | 0.0 | 0.0 | 0.00 | 0.00 | 0.15 | 89 | 1017.6 |
| 20260830185530 | 19 | 274 | 0.0 | 0.0 | 0.00 | 0.00 | 0.15 | 89 | 1017.5 |
| 20260830185030 | 19 | 229 | 0.0 | 0.0 | 0.00 | 0.00 | 0.15 | 89 | 1017.6 |
| 20260830184529 | 19 | 252 | 0.0 | 0.0 | 0.00 | 0.00 | 0.15 | 89 | 1017.7 |
| 20260830184029 | 18 | 267 | 0.0 | 0.0 | 0.00 | 0.00 | 0.15 | 89 | 1017.9 |
| 20260830183530 | 18 | 293 | 0.0 | 0.0 | 0.00 | 0.00 | 0.15 | 88 | 1017.9 |
| 20260830183030 | 18 | 288 | 0.0 | 0.0 | 0.00 | 0.00 | 0.15 | 88 | 1018.1 |
| 20260830182533 | 19 | 281 | 0.0 | 0.0 | 0.00 | 0.00 | 0.13 | 87 | 1018.1 |
| 20260830182034 | 19 | 233 | 0.0 | 0.0 | 0.00 | 0.00 | 0.10 | 86 | 1018.3 |
| 20260830181530 | 20 | 285 | 0.0 | 0.0 | 0.00 | 0.00 | 0.10 | 86 | 1018.3 |
| 20260830181032 | 20 | 278 | 0.0 | 0.0 | 0.00 | 0.00 | 0.08 | 86 | 1018.1 |
| 20260830180528 | 20 | 286 | 0.0 | 0.0 | 0.00 | 0.00 | 0.05 | 85 | 1018.1 |
| 20260830180028 | 20 | 182 | 0.0 | 0.0 | 0.00 | 0.00 | 0.05 | 86 | 1018.0 |
| 20260830175528 | 20 | 242 | 0.0 | 0.0 | 0.00 | 0.00 | 0.05 | 87 | 1017.9 |
| 20260830175028 | 20 | 220 | 0.0 | 0.0 | 0.00 | 0.00 | 0.05 | 88 | 1018.0 |
| 20260830174529 | 20 | 209 | 0.0 | 0.0 | 0.00 | 0.00 | 0.05 | 88 | 1017.9 |
| 20260830174028 | 20 | 199 | 0.0 | 0.0 | 0.00 | 0.00 | 0.05 | 88 | 1017.8 |
| 20260830173528 | 20 | 199 | 0.0 | 0.0 | 0.00 | 0.00 | 0.05 | 88 | 1017.7 |
| 20260830173028 | 20 | 228 | 0.0 | 0.0 | 0.00 | 0.00 | 0.05 | 88 | 1017.7 |
| 20260830172531 | 20 | 228 | 0.0 | 0.0 | 0.00 | 0.00 | 0.05 | 88 | 1017.6 |
| 20260830172029 | 20 | 228 | 0.0 | 0.0 | 0.00 | 0.00 | 0.05 | 88 | 1017.6 |
| 20260830171528 | 20 | 228 | 0.0 | 0.0 | 0.00 | 0.00 | 0.05 | 88 | 1017.6 |
| 20260830171031 | 20 | 228 | 0.0 | 0.0 | 0.00 | 0.00 | 0.05 | 88 | 1017.5 |
| 20260830170530 | 20 | 229 | 0.0 | 0.0 | 0.00 | 0.00 | 0.05 | 89 | 1017.5 |
| 20260830170040 | 20 | 229 | 0.0 | 0.0 | 0.00 | 0.00 | 0.05 | 88 | 1017.7 |
| 20260830165526 | 20 | 229 | 0.0 | 0.0 | 0.00 | 0.00 | 0.05 | 89 | 1017.8 |
| 20260830165026 | 20 | 229 | 0.0 | 0.0 | 0.00 | 0.00 | 0.05 | 89 | 1017.8 |
| 20260830164526 | 20 | 229 | 0.0 | 0.0 | 0.00 | 0.00 | 0.05 | 89 | 1017.7 |
| 20260830164026 | 20 | 229 | 0.0 | 0.0 | 0.00 | 0.00 | 0.05 | 89 | 1017.7 |
| 20260830163526 | 20 | 229 | 0.0 | 0.0 | 0.00 | 0.00 | 0.05 | 90 | 1017.7 |
| 20260830163031 | 20 | 229 | 0.0 | 0.0 | 0.00 | 0.00 | 0.05 | 89 | 1017.8 |
| 20260830162527 | 20 | 229 | 0.0 | 0.0 | 0.00 | 0.00 | 0.05 | 89 | 1017.7 |
| 20260830162026 | 20 | 229 | 0.0 | 0.0 | 0.00 | 0.00 | 0.05 | 90 | 1017.7 |
| 20260830161525 | 19 | 229 | 0.0 | 0.0 | 0.00 | 0.00 | 0.05 | 89 | 1017.7 |
| 20260830161026 | 20 | 229 | 0.0 | 0.0 | 0.00 | 0.00 | 0.05 | 89 | 1017.9 |